VLG85GB LEBL-LIBD

Flight info

Callsign VLG85GB
Flight time N/A
Altitude 34000
Route DIPES N725 OSPOK/N0434F370 DCT NOLVI DCT ORKUM/N0439F380 DCT ELSAG DCT ALG DCT ARSIK DCT MOROB DCT ORVEX DCT KOLUS DCT IDEPA DCT SUKUN DCT ATNET DCT ROXAN DCT TURMO DCT ROTUN DCT PNZ DCT DOGUS
Aircraft A320/M-SDE3FGHIRWY/LB1

Departure

Time N/A
Airport Josep Tarradellas Barcelona-El Prat Airport (LEBL)

Arrival

Time 2026-04-24 11:35
Airport Bari Karol Wojtyła International Airport (LIBD)
Time Latitude Longitude Altitude Speed Heading
2026-04-24 11:26 41.14995 17.26226 9679 ft 233 kts 35°
2026-04-24 11:27 41.16463 17.27128 9052 ft 232 kts 11°
2026-04-24 11:27 41.18064 17.27100 8458 ft 232 kts 347°
2026-04-24 11:27 41.19503 17.26156 7874 ft 234 kts 322°
2026-04-24 11:27 41.20504 17.24455 7290 ft 237 kts 296°
2026-04-24 11:28 41.20861 17.22319 6740 ft 239 kts 276°
2026-04-24 11:28 41.20917 17.20856 6346 ft 239 kts 276°
2026-04-24 11:28 41.21033 17.17942 5734 ft 238 kts 276°
2026-04-24 11:28 41.21123 17.15754 5428 ft 236 kts 276°
2026-04-24 11:29 41.21213 17.13593 5148 ft 232 kts 277°
2026-04-24 11:29 41.21301 17.11470 4876 ft 228 kts 277°
2026-04-24 11:29 41.21359 17.10060 4677 ft 226 kts 277°
2026-04-24 11:29 41.21447 17.07993 4389 ft 222 kts 276°
2026-04-24 11:30 41.21324 17.05947 4063 ft 225 kts 263°
2026-04-24 11:30 41.21019 17.03922 3740 ft 225 kts 262°
2026-04-24 11:30 41.20713 17.01947 3685 ft 212 kts 263°
2026-04-24 11:30 41.20422 17.00086 3612 ft 201 kts 263°
2026-04-24 11:31 41.20105 16.98283 3568 ft 199 kts 255°
2026-04-24 11:31 41.19626 16.96585 3252 ft 192 kts 253°
2026-04-24 11:31 41.19169 16.94971 2957 ft 181 kts 254°
2026-04-24 11:31 41.18739 16.93452 2716 ft 173 kts 255°
2026-04-24 11:32 41.18185 16.91474 2406 ft 170 kts 255°
2026-04-24 11:32 41.17918 16.90523 2248 ft 162 kts 256°
2026-04-24 11:32 41.17533 16.89168 2012 ft 153 kts 256°
2026-04-24 11:32 41.17170 16.87873 1793 ft 147 kts 255°
2026-04-24 11:33 41.16816 16.86612 1592 ft 144 kts 255°
2026-04-24 11:33 41.16463 16.85356 1394 ft 146 kts 256°
2026-04-24 11:33 41.16109 16.84095 1200 ft 146 kts 258°
2026-04-24 11:33 41.15758 16.82857 1043 ft 144 kts 255°
2026-04-24 11:34 41.15411 16.81624 824 ft 142 kts 256°
2026-04-24 11:34 41.15071 16.80404 642 ft 143 kts 256°
2026-04-24 11:34 41.14730 16.79137 428 ft 143 kts 254°
2026-04-24 11:34 41.14378 16.77922 255 ft 142 kts 256°
2026-04-24 11:35 41.14048 16.76744 152 ft 125 kts 250°
2026-04-24 11:35 41.13800 16.75874 151 ft 76 kts 250°
2026-04-24 11:35 41.13638 16.75282 151 ft 63 kts 249°
2026-04-24 11:35 41.13506 16.74831 148 ft 35 kts 250°
2026-04-24 11:36 41.13397 16.74769 154 ft 17 kts 128°
2026-04-24 11:36 41.13351 16.74888 157 ft 13 kts 86°
2026-04-24 11:36 41.13367 16.75011 158 ft 18 kts 72°
2026-04-24 11:36 41.13415 16.75178 158 ft 20 kts 69°
2026-04-24 11:37 41.13467 16.75364 158 ft 23 kts 69°
2026-04-24 11:37 41.13526 16.75571 158 ft 25 kts 69°
2026-04-24 11:37 41.13592 16.75797 158 ft 27 kts 69°
2026-04-24 11:37 41.13637 16.76005 158 ft 17 kts 102°
2026-04-24 11:38 41.13562 16.76112 159 ft 15 kts 127°
2026-04-24 11:38 41.13572 16.76233 159 ft 11 kts 68°
2026-04-24 11:38 41.13540 16.76281 159 ft 7 kts 157°
2026-04-24 11:38 41.13508 16.76295 159 ft 0 kts 159°
2026-04-24 11:39 41.13507 16.76296 159 ft 0 kts 159°